Location: Unspecified
(49.2170°N, 0.0000°E)
Time: 22:47:32
(UTC+00:00)

A-11 Canister half - Pass Details

Date: 16 June 2019
Orbit: 1527 x 1682 km, 47.3° (Epoch: 13 October)

Event Time Altitude Azimuth Distance (km) Brightness Sun altitude
Rises 09:02:41 0° 267° (W) 4,688 11.2 46.7°
Reaches altitude 10° 09:05:43 10° 266° (W) 3,699 10.7 47.2°
Maximum altitude 09:15:01 81° 182° (S) 1,551 10.1 48.6°
Drops below altitude 10° 09:24:25 10° 97° (E) 3,730 11.9 50.0°
Sets 09:27:30 0° 96° (E) 4,729 12.1 50.4°
